COSMOS 1823 DEB, 39810

Orbit data source: Space-Track

COSMOS 1823 DEB, 39810 is space debris in LEO originally from a launch on Fri, 20 Feb 1987 UTC launched from the Plesetsk Missile And Space Complex (PKMTR). Debris objects in space refer to the collection of defunct objects orbiting the Earth. Examples of debris include non-operational satellites, rocket bodies, and fragments generated from explosions, collisions, or faulty payload assembly.

Loading next visibility...
Identifier
39810, 1987-020EJ
Orbit
LEO
Country
Flag of CISCIS
Related business
Manufacturer
Unknown
Mission
Spacecraft
Bus & Motor
Unknown
Mass
Unknown
Launch date (UTC)
1987-02-20 (39 years ago)
Launch vehicle
Unknown
Launch site
Plesetsk Missile And Space Complex (PKMTR)
Object type
Payload
Rocket body
Debris
Shape & HBR
Unknown shape, 0.1 m
Radar Cross Section
Small (<0.1 m²)

Expand to show TLE details & history
Last TLE update: 1 week ago

TLE from 1 week ago
0 COSMOS 1823 DEB
1 39810U 87020EJ  26166.34629817  .00000095  00000-0  81987-3 0  9999
2 39810  73.7028 185.5577 0033864 100.3087 260.1779 12.41829022547178
Epoch: 2026-06-15T08:18Z
TLE epoch observation values (Epoch: 2026-06-15T08:18:40.161Z)
Latitude
0.00004°
Longitude
157.25637°
Altitude
1,505.851 km
Speed
7.11 km/s
True Right ascension
12h 22m 13s
True Declination
0° 00' 00"
Sunlit
Object was in daylight at epoch
Visualization orbit readout
Latitude
Unknown
Longitude
Unknown
Altitude
Unknown
Speed
Unknown
Apparent Right ascension
Unknown
Apparent Declination
Unknown
Sunlit
N/A
Visualization observer readout
Local Sidereal Time
03:28:50
Azimuth
Unknown
Elevation
Unknown
Doppler factor
Unknown
Orbital elements
Apogee altitude
1,523.397 km
Perigee altitude
1,470.062 km
Semi-major axis
7,874.866 km
Eccentricity
0.00339
Inclination
73.7028°
RAAN
185.5577°
Arg. of periapsis
100.3087°
True anomaly
259.79581°
Mean anomaly
260.1779°
Eccentric anomaly
259.98683°
Mean motion
3.10584 °/min
Orbital period
115.91 mins
BSTAR
0.00081987
Loading maneuver chart data...
Computing Atmospheric mass density...

Documentation

Showing up to 5 results
|